Location: Newark
(47.5833°N, 8.1500°E)
Time: 18:10:37
(UTC+00:00)

Tiros 1 despin weight - Pass Details

Date: 31 October 2020
Orbit: 593 x 642 km, 48.2° (Epoch: 24 November)

Event Time Altitude Azimuth Distance (km) Brightness Sun altitude
Rises 21:51:48 0° 210° (SSW) 2,879 - -53.0°
Reaches altitude 10° 21:54:26 10° 197° (SSW) 1,967 - -53.3°
Maximum altitude 21:58:04 24° 143° (SE) 1,266 - -53.6°
Drops below altitude 10° 22:01:40 10° 90° (E) 1,951 - -53.9°
Sets 22:04:17 0° 76° (ENE) 2,850 - -54.1°
